Ahburik, Turkey

1:55 AM +03 on September 22, 2017 (GMT +0300)
Erzurum | | Change Station

Elev 5768 ft 39.95 °N, 41.17 °E | Updated 35 minutes ago

Clear
Clear
46 °F
Feels Like 46 °F
N
2
Wind Variable Wind from Variable

Today
High -- | Low -- °F
--% Chance of Precip.
Yesterday
High -- | Low -- °F
Precip. -- in
Pressure 30.12 in
Visibility -9999.0 miles
Clouds
Dew Point 30 °F
Humidity 53%
Rainfall 0.00 in
Snow Depth Not available.
6:03 AM 6:13 PM
Waxing Crescent, 3% visible
METAR LTCE 212220Z VRB02KT CAVOK 08/M01 Q1020 NOSIG RMK RWY08R 00000KT RWY26R 27003KT RWY08L /////KT
Pressure 30.12 in
Visibility -9999.0 miles
Clouds
Dew Point 30 °F
Humidity 53%
Rainfall 0.00 in
Snow Depth Not available.
6:03 AM 6:13 PM
Waxing Crescent, 3% visible
METAR LTCE 212220Z VRB02KT CAVOK 08/M01 Q1020 NOSIG RMK RWY08R 00000KT RWY26R 27003KT RWY08L /////KT

Get Severe Weather Alerts

Thanks for signing up!

Be on the lookout for a verification email in your inbox.

You'll start receiving the daily forecast at 6 AM.

×

10-Day Weather Forecast

×

Almanac

Astronomy

Sep. 22, 2017 Rise Set
Actual Time
Civil Twilight
Nautical Twilight
Astronomical Twilight
Moon
Length of Visible Light
Length of Day
Tomorrow will be .
, % of the Moon is Illuminated

Today's Extremes

Country Highs Country Lows

Community

WunderPhotos

Category 6

Welcome to Category 6. This is the collective home for Weather Underground's featured writeups by Dr. Jeff Masters (right), Bob Henson (left), Chris Burt, and other regular contributors.

Nearby

Air Quality

  Air Quality AQ Index Pollutant
Not available.

Snow Depth

Station Depth Elevation

Earthquake Activity

City Distance Mag. Time & Date
Minimum magnitude displayed is 2.5.

Coastal Water Temperatures

Place Temperature

Stations

Nearby Weather Stations

Station Location Temp. Windchill Dew Point Humidity Wind Precip. Elev Updated Type